DLH770 EGKK-LSZB

Flight info

Callsign DLH770
Flight time N/A
Altitude 37000
Route MAY DCT REM DCT BLM
Aircraft A320/M-SDE3FGHIRWY/LB1

Departure

Time N/A
Airport London Gatwick Airport (EGKK)

Arrival

Time 2026-05-07 09:46
Airport Bern Airport (LSZB)
Time Latitude Longitude Altitude Speed Heading
2026-05-07 08:38 50.92006 0.35679 13293 ft 397 kts 123°
2026-05-07 08:38 50.90500 0.39369 13952 ft 401 kts 123°
2026-05-07 08:38 50.88978 0.43096 14563 ft 405 kts 123°
2026-05-07 08:39 50.87421 0.46905 15187 ft 408 kts 123°
2026-05-07 08:39 50.85871 0.50703 15823 ft 412 kts 123°
2026-05-07 08:39 50.84308 0.54527 16408 ft 415 kts 123°
2026-05-07 08:39 50.82738 0.58368 16981 ft 418 kts 123°
2026-05-07 08:40 50.81146 0.62248 17538 ft 421 kts 123°
2026-05-07 08:40 50.79544 0.66145 18076 ft 425 kts 123°
2026-05-07 08:40 50.77931 0.70071 18574 ft 428 kts 123°
2026-05-07 08:40 50.76277 0.74086 19027 ft 431 kts 123°
2026-05-07 08:41 50.74635 0.78065 19459 ft 434 kts 123°
2026-05-07 08:41 50.72985 0.82055 19888 ft 436 kts 123°
2026-05-07 08:41 50.71322 0.86074 20304 ft 439 kts 123°
2026-05-07 08:41 50.69648 0.90116 20707 ft 442 kts 123°
2026-05-07 08:42 50.67959 0.94185 21099 ft 444 kts 124°
2026-05-07 08:42 50.66239 0.98324 21479 ft 447 kts 124°
2026-05-07 08:42 50.64535 1.02420 21848 ft 449 kts 124°
2026-05-07 08:42 50.62811 1.06560 22214 ft 452 kts 124°
2026-05-07 08:43 50.61084 1.10697 22551 ft 454 kts 124°
2026-05-07 08:43 50.59339 1.14865 22901 ft 456 kts 124°
2026-05-07 08:43 50.57585 1.19045 23237 ft 459 kts 124°
2026-05-07 08:43 50.55830 1.23226 23567 ft 461 kts 124°
2026-05-07 08:44 50.54051 1.27463 23838 ft 463 kts 124°
2026-05-07 08:44 50.52270 1.31700 24114 ft 465 kts 124°
2026-05-07 08:44 50.50462 1.35991 24379 ft 467 kts 124°
2026-05-07 08:44 50.48657 1.40263 24623 ft 469 kts 124°
2026-05-07 08:45 50.46853 1.44522 24870 ft 470 kts 124°
2026-05-07 08:45 50.45012 1.48863 25107 ft 472 kts 124°
2026-05-07 08:45 50.43185 1.53162 25335 ft 473 kts 124°
2026-05-07 08:45 50.41331 1.57518 25543 ft 475 kts 124°
2026-05-07 08:46 50.39498 1.61827 25737 ft 476 kts 124°
2026-05-07 08:46 50.37653 1.66160 25923 ft 478 kts 124°
2026-05-07 08:46 50.35813 1.70481 26165 ft 477 kts 124°
2026-05-07 08:46 50.33948 1.74854 26437 ft 476 kts 124°
2026-05-07 08:47 50.32103 1.79159 26697 ft 476 kts 124°
2026-05-07 08:47 50.30264 1.83442 26962 ft 475 kts 125°
2026-05-07 08:47 50.28414 1.87741 27248 ft 475 kts 125°
2026-05-07 08:47 50.26574 1.92006 27522 ft 474 kts 125°
2026-05-07 08:48 50.24727 1.96281 27770 ft 474 kts 125°
2026-05-07 08:48 50.22858 2.00606 28070 ft 473 kts 125°
2026-05-07 08:48 50.21016 2.04852 28352 ft 473 kts 125°
2026-05-07 08:48 50.19170 2.09101 28633 ft 472 kts 125°
2026-05-07 08:49 50.17329 2.13337 28911 ft 472 kts 125°
2026-05-07 08:49 50.15513 2.17516 29199 ft 471 kts 125°
2026-05-07 08:49 50.13652 2.21790 29498 ft 471 kts 125°
2026-05-07 08:49 50.11812 2.26013 29806 ft 470 kts 125°
2026-05-07 08:50 50.09979 2.30217 30114 ft 469 kts 125°
2026-05-07 08:50 50.08141 2.34422 30379 ft 469 kts 125°
2026-05-07 08:50 50.06309 2.38596 30644 ft 468 kts 125°
2026-05-07 08:50 50.04466 2.42778 30908 ft 467 kts 125°
2026-05-07 08:51 50.02610 2.46996 31172 ft 466 kts 125°
2026-05-07 08:51 50.00802 2.51104 31446 ft 465 kts 125°
2026-05-07 08:51 49.99568 2.53905 31630 ft 465 kts 125°
2026-05-07 08:51 49.97741 2.58047 31887 ft 464 kts 125°
2026-05-07 08:52 49.95915 2.62174 32154 ft 464 kts 125°
2026-05-07 08:52 49.94064 2.66348 32423 ft 463 kts 125°
2026-05-07 08:52 49.92231 2.70475 32687 ft 463 kts 126°
2026-05-07 08:52 49.90411 2.74573 32944 ft 462 kts 126°
2026-05-07 08:53 49.88565 2.78724 33220 ft 461 kts 126°
2026-05-07 08:53 49.86742 2.82819 33482 ft 461 kts 126°
2026-05-07 08:53 49.84919 2.86902 33739 ft 460 kts 126°
2026-05-07 08:53 49.83089 2.90984 33996 ft 460 kts 126°
2026-05-07 08:54 49.81240 2.95102 34222 ft 460 kts 126°
2026-05-07 08:54 49.79399 2.99206 34429 ft 460 kts 126°
2026-05-07 08:54 49.77572 3.03275 34628 ft 460 kts 126°
2026-05-07 08:54 49.75744 3.07339 34827 ft 460 kts 126°
2026-05-07 08:55 49.73915 3.11395 35028 ft 460 kts 126°
2026-05-07 08:55 49.72086 3.15448 35221 ft 460 kts 126°
2026-05-07 08:55 49.70224 3.19561 35414 ft 460 kts 126°
2026-05-07 08:55 49.68387 3.23608 35594 ft 461 kts 126°
2026-05-07 08:56 49.66548 3.27664 35780 ft 461 kts 126°
2026-05-07 08:56 49.64632 3.31887 35958 ft 461 kts 126°
2026-05-07 08:56 49.62794 3.35938 36129 ft 461 kts 126°
2026-05-07 08:56 49.60951 3.39985 36313 ft 461 kts 126°
2026-05-07 08:57 49.59104 3.44029 36453 ft 462 kts 126°
2026-05-07 08:57 49.57257 3.48070 36611 ft 462 kts 126°
2026-05-07 08:57 49.55407 3.52116 36764 ft 462 kts 126°
2026-05-07 08:57 49.53557 3.56161 36914 ft 462 kts 126°
2026-05-07 08:58 49.51700 3.60209 37044 ft 463 kts 126°
2026-05-07 08:58 49.49811 3.64317 37056 ft 465 kts 126°
2026-05-07 08:58 49.46069 3.72439 37059 ft 465 kts 126°
2026-05-07 08:59 49.42293 3.80603 37057 ft 466 kts 126°
2026-05-07 08:59 49.38536 3.88688 37061 ft 466 kts 126°
2026-05-07 09:00 49.34774 3.96783 37053 ft 466 kts 126°
2026-05-07 09:00 49.31000 4.04890 37051 ft 466 kts 126°
2026-05-07 09:01 49.27216 4.13124 37053 ft 467 kts 126°
2026-05-07 09:01 49.23508 4.21271 37058 ft 467 kts 126°
2026-05-07 09:02 49.19754 4.29464 37056 ft 467 kts 126°
2026-05-07 09:02 49.16016 4.37590 37061 ft 467 kts 126°
2026-05-07 09:03 49.12264 4.45709 37055 ft 468 kts 126°
2026-05-07 09:03 49.08496 4.53805 37056 ft 468 kts 126°
2026-05-07 09:04 49.04707 4.61957 37059 ft 468 kts 126°
2026-05-07 09:04 49.00948 4.70051 37059 ft 468 kts 126°
2026-05-07 09:05 48.97167 4.78145 37063 ft 469 kts 126°
2026-05-07 09:05 48.93357 4.86277 37062 ft 469 kts 126°
2026-05-07 09:06 48.89560 4.94335 37064 ft 469 kts 126°
2026-05-07 09:06 48.86378 5.01074 37060 ft 469 kts 126°
2026-05-07 09:07 48.82548 5.09183 37062 ft 469 kts 127°
2026-05-07 09:07 48.78734 5.17220 37062 ft 469 kts 127°
2026-05-07 09:08 48.74918 5.25235 37061 ft 469 kts 127°
2026-05-07 09:08 48.71077 5.33299 37057 ft 469 kts 127°
2026-05-07 09:09 48.67273 5.41256 37056 ft 469 kts 127°
2026-05-07 09:09 48.63384 5.49349 37056 ft 469 kts 127°
2026-05-07 09:10 48.59418 5.57577 37056 ft 470 kts 127°
2026-05-07 09:10 48.55505 5.65665 37066 ft 470 kts 127°
2026-05-07 09:11 48.51850 5.73222 37059 ft 470 kts 127°
2026-05-07 09:11 48.47973 5.81230 37074 ft 470 kts 127°
2026-05-07 09:12 48.44024 5.89171 37060 ft 469 kts 134°
2026-05-07 09:12 48.41582 5.92400 37067 ft 466 kts 148°
2026-05-07 09:12 48.38758 5.94856 37060 ft 464 kts 153°
2026-05-07 09:13 48.33090 5.99509 37058 ft 464 kts 153°
2026-05-07 09:13 48.27394 6.04121 37056 ft 465 kts 153°
2026-05-07 09:14 48.21705 6.08730 37062 ft 465 kts 153°
2026-05-07 09:14 48.16022 6.13366 37062 ft 465 kts 153°
2026-05-07 09:15 48.10344 6.17988 37058 ft 465 kts 153°
2026-05-07 09:15 48.04660 6.22597 37055 ft 465 kts 153°
2026-05-07 09:16 47.98964 6.27182 37052 ft 465 kts 153°
2026-05-07 09:16 47.93264 6.31754 37052 ft 465 kts 153°
2026-05-07 09:17 47.87567 6.36328 37057 ft 465 kts 153°
2026-05-07 09:17 47.81839 6.40927 37054 ft 465 kts 154°
2026-05-07 09:18 47.76137 6.45478 37053 ft 465 kts 154°
2026-05-07 09:18 47.70437 6.50017 37052 ft 465 kts 154°
2026-05-07 09:19 47.64736 6.54569 37062 ft 465 kts 154°
2026-05-07 09:19 47.59035 6.59102 37056 ft 465 kts 154°
2026-05-07 09:20 47.53294 6.63642 37058 ft 465 kts 154°
2026-05-07 09:20 47.47580 6.68138 37057 ft 465 kts 154°
2026-05-07 09:21 47.41870 6.72628 37060 ft 465 kts 154°
2026-05-07 09:21 47.36150 6.77123 37064 ft 465 kts 154°
2026-05-07 09:22 47.30437 6.81610 37062 ft 465 kts 154°
2026-05-07 09:22 47.24678 6.86113 37041 ft 465 kts 154°
2026-05-07 09:23 47.18925 6.90587 37012 ft 465 kts 154°
2026-05-07 09:23 47.16029 6.92835 36045 ft 464 kts 154°
2026-05-07 09:23 47.13163 6.95058 34557 ft 468 kts 154°
2026-05-07 09:24 47.10266 6.97304 32889 ft 471 kts 154°
2026-05-07 09:24 47.07293 6.99607 31132 ft 471 kts 153°
2026-05-07 09:24 47.04400 7.01846 29241 ft 471 kts 152°
2026-05-07 09:24 47.01456 7.04123 27014 ft 473 kts 153°
2026-05-07 09:25 46.99525 7.05614 25583 ft 475 kts 153°
2026-05-07 09:25 46.96488 7.07956 23572 ft 475 kts 153°
2026-05-07 09:25 46.93527 7.10239 22443 ft 456 kts 153°
2026-05-07 09:25 46.90789 7.12349 22092 ft 424 kts 153°
2026-05-07 09:26 46.88311 7.14404 21928 ft 396 kts 144°
2026-05-07 09:26 46.86517 7.17250 21770 ft 372 kts 120°
2026-05-07 09:26 46.85680 7.20717 21271 ft 358 kts 95°
2026-05-07 09:26 46.85894 7.24272 20520 ft 352 kts 71°
2026-05-07 09:27 46.87076 7.27430 19561 ft 351 kts 46°
2026-05-07 09:27 46.88974 7.29616 18649 ft 348 kts 24°
2026-05-07 09:27 46.93417 7.32536 16707 ft 349 kts 22°
2026-05-07 09:28 46.95644 7.33982 15747 ft 350 kts 22°
2026-05-07 09:28 46.97967 7.35142 14813 ft 347 kts
2026-05-07 09:28 47.00350 7.35417 13923 ft 344 kts 355°
2026-05-07 09:28 47.02686 7.34815 12954 ft 339 kts 340°
2026-05-07 09:29 47.04813 7.33400 12038 ft 333 kts 326°
2026-05-07 09:29 47.06667 7.31346 11134 ft 328 kts 319°
2026-05-07 09:29 47.08398 7.29215 10277 ft 322 kts 312°
2026-05-07 09:29 47.09714 7.26522 9382 ft 314 kts 294°
2026-05-07 09:30 47.10358 7.23518 8513 ft 307 kts 277°
2026-05-07 09:30 47.10354 7.20432 7682 ft 300 kts 260°
2026-05-07 09:30 47.09739 7.17551 6925 ft 293 kts 243°
2026-05-07 09:30 47.08622 7.15184 6849 ft 271 kts 227°
2026-05-07 09:31 47.07244 7.13466 7605 ft 249 kts 215°
2026-05-07 09:31 47.06108 7.12545 7860 ft 231 kts 205°
2026-05-07 09:31 47.04588 7.11875 8051 ft 227 kts 191°
2026-05-07 09:31 47.03010 7.11752 8303 ft 229 kts 178°
2026-05-07 09:32 47.01437 7.12160 8576 ft 232 kts 165°
2026-05-07 09:32 46.99942 7.13105 8836 ft 236 kts 152°
2026-05-07 09:32 46.98619 7.14553 9003 ft 240 kts 137°
2026-05-07 09:32 46.97559 7.16447 9044 ft 242 kts 123°
2026-05-07 09:33 46.96831 7.18676 9033 ft 244 kts 109°
2026-05-07 09:33 46.96487 7.21094 9033 ft 239 kts 95°
2026-05-07 09:33 46.96539 7.23477 9032 ft 233 kts 81°
2026-05-07 09:33 46.96808 7.25812 9038 ft 232 kts 80°
2026-05-07 09:34 46.97106 7.28158 9032 ft 232 kts 79°
2026-05-07 09:34 46.97408 7.30476 9039 ft 231 kts 79°
2026-05-07 09:34 46.97712 7.32791 9031 ft 231 kts 79°
2026-05-07 09:34 46.98012 7.35097 9031 ft 231 kts 79°
2026-05-07 09:35 46.98311 7.37413 9027 ft 231 kts 79°
2026-05-07 09:35 46.98608 7.39729 9039 ft 231 kts 79°
2026-05-07 09:35 46.98903 7.42043 9035 ft 231 kts 79°
2026-05-07 09:35 46.99198 7.44352 9032 ft 231 kts 80°
2026-05-07 09:36 46.99518 7.46884 9030 ft 231 kts 80°
2026-05-07 09:36 46.99810 7.49196 9029 ft 231 kts 80°
2026-05-07 09:36 47.00102 7.51517 9029 ft 231 kts 80°
2026-05-07 09:36 47.00393 7.53832 9033 ft 231 kts 80°
2026-05-07 09:37 47.00687 7.56151 9027 ft 231 kts 80°
2026-05-07 09:37 47.00980 7.58467 9031 ft 231 kts 80°
2026-05-07 09:37 47.01280 7.60856 9034 ft 232 kts 80°
2026-05-07 09:37 47.01569 7.63168 9033 ft 231 kts 80°
2026-05-07 09:38 47.01860 7.65492 9033 ft 232 kts 79°
2026-05-07 09:38 47.02470 7.67675 9027 ft 230 kts 48°
2026-05-07 09:38 47.03815 7.69169 9030 ft 228 kts 24°
2026-05-07 09:38 47.05276 7.70042 9035 ft 227 kts 14°
2026-05-07 09:39 47.06805 7.70155 9028 ft 219 kts 340°
2026-05-07 09:39 47.08061 7.69027 9033 ft 212 kts 306°
2026-05-07 09:39 47.08719 7.67136 9048 ft 209 kts 287°
2026-05-07 09:39 47.09148 7.65095 9052 ft 209 kts 284°
2026-05-07 09:40 47.09543 7.63054 8829 ft 207 kts 283°
2026-05-07 09:40 47.09897 7.60975 8522 ft 206 kts 273°
2026-05-07 09:40 47.09717 7.58959 8247 ft 203 kts 246°
2026-05-07 09:40 47.09038 7.57146 7953 ft 203 kts 240°
2026-05-07 09:41 47.08335 7.55378 7771 ft 198 kts 240°
2026-05-07 09:41 47.07640 7.53633 7572 ft 194 kts 240°
2026-05-07 09:41 47.06963 7.51931 7309 ft 193 kts 240°
2026-05-07 09:41 47.06299 7.50256 7073 ft 184 kts 240°
2026-05-07 09:42 47.05670 7.48671 6803 ft 177 kts 240°
2026-05-07 09:42 47.05057 7.47127 6529 ft 174 kts 240°
2026-05-07 09:42 47.04451 7.45597 6168 ft 173 kts 240°
2026-05-07 09:42 47.03846 7.44071 5835 ft 173 kts 240°
2026-05-07 09:43 47.03242 7.42550 5501 ft 172 kts 240°
2026-05-07 09:43 47.02481 7.41198 5161 ft 173 kts 221°
2026-05-07 09:43 47.01801 7.40563 4965 ft 169 kts 207°
2026-05-07 09:43 47.00354 7.40101 4372 ft 170 kts 180°
2026-05-07 09:44 46.99202 7.40467 4126 ft 172 kts 159°
2026-05-07 09:44 46.98211 7.41405 3872 ft 166 kts 142°
2026-05-07 09:44 46.97320 7.42496 3604 ft 156 kts 142°
2026-05-07 09:44 46.96507 7.43490 3332 ft 150 kts 141°
2026-05-07 09:45 46.95699 7.44477 3060 ft 149 kts 141°
2026-05-07 09:45 46.94923 7.45432 2792 ft 142 kts 140°
2026-05-07 09:45 46.94408 7.46044 2585 ft 145 kts 140°
2026-05-07 09:45 46.93627 7.46978 2317 ft 144 kts 139°
2026-05-07 09:46 46.92873 7.47917 2068 ft 142 kts 139°
2026-05-07 09:46 46.92108 7.48852 1792 ft 146 kts 139°
2026-05-07 09:46 46.91594 7.49483 1686 ft 137 kts 140°
2026-05-07 09:46 46.90930 7.50309 1679 ft 20 kts 139°
2026-05-07 09:47 46.90918 7.50376 1680 ft 4 kts 57°
2026-05-07 09:47 46.90935 7.50407 1681 ft 7 kts 34°
2026-05-07 09:47 46.90987 7.50382 1681 ft 9 kts 318°
2026-05-07 09:47 46.91032 7.50370 1685 ft 7 kts 43°
2026-05-07 09:48 46.91044 7.50389 1682 ft 0 kts 48°